Regional Weather Roundup
Issued by NWS Midland/Odessa, TX

Skip options and go directly to product.
Home | Oldest Version | Previous Version | Current Version | All | Text Only | Save Text | Print | Product List | Glossary On

Skip product version selection by date and time.   
029
ASUS44 KMAF 280601
RWRMAF
MIDLAND AREA WEATHER ROUNDUP
NATIONAL WEATHER SERVICE MIDLAND TX
100 AM CDT SAT MAY 28 2016

...IN SOUTHWEST TEXAS AND SOUTHEAST NEW MEXICO...

CITY           SKY/WX    TMP DP  RH WIND       PRES   REMARKS
ALPINE         CLEAR     54  20  27 S7        30.03S
ANDREWS        FAIR      70  23  17 W8        29.87S
ARTESIA        CLEAR     68  21  17 W16       29.87S
BIG SPRING     CLEAR     63  34  33 SE5       29.86S
CARLSBAD       CLEAR     68  18  14 W12       29.86S
DRYDEN           N/A     69  29  22 N6        29.83R
FORT STOCKTON  CLEAR     66  17  15 SW9       29.88S
GUAD PASS      NOT AVBL
HOBBS          CLEAR     59  19  21 W9        29.89S
MARFA          CLEAR     50  15  24 VRB3      30.02S
MIDLAND AIRPK  CLEAR     74  16  11 W7        29.85F
MIDLAND INTL   CLEAR     68  17  14 W7        29.85S
ODESSA         CLEAR     69  15  12 W6        29.86S
PECOS          CLEAR     65  17  16 W10       29.85S
PRESIDIO       FAIR      75  14   9 N8        29.86R
SEMINOLE       CLEAR     64  31  29 W6        29.88S
SNYDER           N/A     65  47  50 SE9       29.83S
WINK           CLEAR     67  17  14 W8        29.84R
$$
...OTHER STATIONS IN TEXAS...

CITY           SKY/WX    TMP DP  RH WIND       PRES   REMARKS
ABILENE        CLEAR     67  64  90 S8        29.82S
AMARILLO       CLEAR     56  45  66 N10       29.91F
AUSTIN         FOG       66  66 100 E10       29.82S VSB 1/8
BROWNSVILLE    PTCLDY    79  77  94 S8        29.79R
CORPUS CHRISTI PTCLDY    76  70  82 SE9       29.79F
DALLAS FTW     CLOUDY    68  64  87 E7        29.81F
DEL RIO        CLEAR     71  64  78 SE7       29.79R
EL PASO        CLEAR     74  16  11 NW6       29.92S
HOUSTON INT    CLOUDY    66  65  96 S3        29.85R
LUBBOCK        CLEAR     62  40  44 SE5       29.85S
SAN ANGELO     CLEAR     63  60  90 N7        29.83R
SAN ANTONIO    CLEAR     70  67  90 CALM      29.83S
WACO           CLOUDY    67  65  93 SE7       29.82F
WICHITA FALLS  NOT AVBL
$$
...OTHER LOCATIONS IN NEW MEXICO...

CITY           SKY/WX    TMP DP  RH WIND       PRES   REMARKS
ALAMAGORDO     CLEAR     63  18  17 SE9       29.93S
ALBUQUERQUE    CLOUDY    65  23  20 NW7       29.98S
CANNON AFB     CLEAR     60  40  48 N12       29.93R
CLOVIS         CLEAR     57  39  51 N10       29.94F
HOLLOMAN AFB   CLEAR     68  16  13 S7        29.91R
ROSWELL        CLEAR     64  24  21 W10       29.87S
RUIDOSO          N/A     55  23  28 SW8       30.09S
SANTA FE       PTCLDY    48  31  51 NE10      30.04R
TRUTH OR CONSE PTCLDY    65  26  23 W7        29.96R
TUCUMCARI      CLEAR     57  40  52 S5        29.92S
$$

USA.gov is the U.S. government's official web portal to all federal, state and local government web resources and services.